This is the latest recevied weather packets stored in our database for station/object OM0AGP-15. If no packets are shown the sender has not sent any weather packets the latest 10 day(s).
| Time | Temp. | Humidity | Pressure | Rain* | Wind** | Luminosity | Snow |
|---|---|---|---|---|---|---|---|
| 1777650382 | 13.89° C | 38% | 1023.2 hPa | - | - | - | - |
| 1777649482 | 13.89° C | 38% | 1023.1 hPa | - | - | - | - |
| 1777647682 | 13.89° C | 38% | 1023.2 hPa | - | - | - | - |
| 1777646782 | 13.33° C | 38% | 1023.4 hPa | - | - | - | - |
| 1777645882 | 13.89° C | 37% | 1023.4 hPa | - | - | - | - |
| 1777644982 | 13.89° C | 38% | 1023.4 hPa | - | - | - | - |
| 1777644081 | 13.33° C | 39% | 1023.4 hPa | - | - | - | - |
| 1777643181 | 13.33° C | 38% | 1023.5 hPa | - | - | - | - |
| 1777642281 | 13.89° C | 38% | 1023.6 hPa | - | - | - | - |
| 1777641381 | 13.33° C | 39% | 1023.7 hPa | - | - | - | - |
| 1777640481 | 13.33° C | 38% | 1023.9 hPa | - | - | - | - |
| 1777639581 | 13.33° C | 38% | 1024 hPa | - | - | - | - |
| 1777638681 | 13.33° C | 38% | 1024.1 hPa | - | - | - | - |
| 1777637781 | 13.33° C | 37% | 1024.3 hPa | - | - | - | - |
| 1777636881 | 13.33° C | 39% | 1024.3 hPa | - | - | - | - |
| 1777635981 | 12.78° C | 37% | 1024.5 hPa | - | - | - | - |
| 1777635081 | 12.78° C | 37% | 1024.5 hPa | - | - | - | - |
| 1777634181 | 12.78° C | 37% | 1024.4 hPa | - | - | - | - |
| 1777633281 | 12.78° C | 38% | 1024.7 hPa | - | - | - | - |
| 1777632381 | 12.22° C | 38% | 1024.7 hPa | - | - | - | - |
| 1777631480 | 12.22° C | 38% | 1024.8 hPa | - | - | - | - |
| 1777630580 | 12.78° C | 37% | 1024.8 hPa | - | - | - | - |
| 1777629679 | 13.89° C | 35% | 1024.7 hPa | - | - | - | - |
| 1777628779 | 14.44° C | 35% | 1025 hPa | - | - | - | - |
| 1777627879 | 13.89° C | 36% | 1025.1 hPa | - | - | - | - |
* Rain since midnight (hover to see other rain measurements)
** Current wind speed in m/s (hover to see current wind gust speed)